Regional Weather Roundup
Issued by NWS

Home | Current Version | Previous Version | Text Only | Print | Product List | Glossary Off
Versions: 1 2 3 4 5 6 7 8 9 10 11 12 13 14 15 16 17 18 19 20 21 22 23 24 25 26 27 28 29 30 31 32 33 34 35 36 37 38 39 40 41 42 43 44 45 46 47 48 49 50

000
ASUS43 KDMX 270001
RWRIA

WEATHER ROUNDUP FOR IOWA
NATIONAL WEATHER SERVICE DES MOINES IA
700 PM CDT MON JUN 26 2017

NOTE: "FAIR" INDICATES FEW OR NO CLOUDS BELOW 12,000 FEET WITH NO
SIGNIFICANT WEATHER AND/OR OBSTRUCTIONS TO VISIBILITY.

* - THESE STATIONS ARE NOT NWS STATIONS...THUS NOT UNDER NWS
QUALITY CONTROL.  THEY ALSO DO NOT REPORT WEATHER SUCH
AS PRECIPITATION OR FOG.

IAZ001>003-012>014-020>022-031>034-043>046-270100-
   NORTHWEST IOWA

CITY           SKY/WX    TMP DP  RH WIND       PRES   REMARKS
CARROLL *      SUNNY     72  41  33 N9        30.12S
CHEROKEE *     SUNNY     69  41  36 E7        30.14S
DENISON *      SUNNY     72  43  35 N8        30.14R
LE MARS *      SUNNY     72  39  30 N5G13     30.14F
ORANGE CITY *  SUNNY     70  43  37 NE6       30.14F
SHELDON *      SUNNY     70  39  32 N6        30.13S
SIOUX CITY     SUNNY     73  41  31 N8        30.12F
6HR MIN TEMP:  72; 6HR MAX TEMP:  76;

SPENCER        SUNNY     71  38  29 NE8       30.14F
6HR MIN TEMP:  68; 6HR MAX TEMP:  72;

STORM LAKE *   SUNNY     70  36  28 NE5G13    30.14S
$$

IAZ055>058-069>071-079>083-090>094-270100-
   SOUTHWEST IOWA

CITY           SKY/WX    TMP DP  RH WIND       PRES   REMARKS
ATLANTIC *     SUNNY     72  46  40 NE6G12    30.11S
AUDUBON *      SUNNY     72  45  37 N8        30.13S
CLARINDA *     CLOUDY    70  61  73 SW5       30.13S
COUNCIL BLFS * SUNNY     73  48  40 NE7       30.11S
CRESTON *      MOSUNNY   72  50  46 N7        30.12S
HARLAN  *      SUNNY     72  46  40 N5        30.15S
LAMONI         MOSUNNY   72  56  57 VRB3      30.10S
6HR MIN TEMP:  67; 6HR MAX TEMP:  74;

RED OAK *      SUNNY     72  54  53 CALM      30.10F
SHENANDOAH *   MOSUNNY   72  59  64 CALM      30.11S
$$

IAZ047>049-059>061-072>074-084-270100-
   CENTRAL IOWA

CITY           SKY/WX    TMP DP  RH WIND       PRES   REMARKS
AMES           PTSUNNY   72  43  35 N8        30.11S
6HR MIN TEMP:  68; 6HR MAX TEMP:  74;

ANKENY *       SUNNY     72  45  37 N9G15     30.12R
BOONE *        SUNNY     70  39  32 N9        30.11S
CHARITON *     SUNNY     72  52  49 N7G13     30.10R
DES MOINES     MOSUNNY   73  43  33 N12       30.10S
6HR MIN TEMP:  68; 6HR MAX TEMP:  75;

GRINNELL*      SUNNY     71  41  33 N10       30.11S
KNOXVILLE *    PTSUNNY   72  46  40 N9        30.09S
MARSHALLTOWN   SUNNY     70  42  36 NW7       30.10S
6HR MIN TEMP:  68; 6HR MAX TEMP:  73;

NEWTON *       SUNNY     72  43  35 N10       30.11R
PELLA *        MOSUNNY   73  43  34 N6        30.11R
PERRY *          N/A     71  41  34 N6        30.11S
$$

IAZ004>006-015-016-023>025-035-036-270100-
   NORTH CENTRAL IOWA

CITY           SKY/WX    TMP DP  RH WIND       PRES   REMARKS
ALGONA *       SUNNY     70  37  30 N7        30.13F
CLARION *        N/A     68  39  34 N8        30.13R
ESTHERVILLE    SUNNY     68  41  37 N7        30.13F
6HR MIN TEMP:  65; 6HR MAX TEMP:  69;

FORT DODGE *   SUNNY     70  39  32 N6        30.14S
MASON CITY     SUNNY     68  39  34 N12       30.13F
6HR MIN TEMP:  66; 6HR MAX TEMP:  71;

FOREST CITY *    N/A     70  23  17 N7        30.13S
WEBSTER CITY * SUNNY     70  39  32 N9G16     30.10S
IOWA FALLS *     N/A     70  40  33 N7G17     30.12S
$$

IAZ007>011-017>019-026>030-037>042-050>054-066-270100-
   NORTHEAST IOWA

CITY           SKY/WX    TMP DP  RH WIND       PRES   REMARKS
CEDAR RAPIDS   MOSUNNY   69  43  38 N14       30.08S
6HR MIN TEMP:  69; 6HR MAX TEMP:  73;

CHARLES CITY * MOSUNNY   68  39  34 N8        30.12S
CLINTON *      SUNNY     68  45  43 MISG      30.09R
DECORAH *      SUNNY     66  43  42 N9G16     30.09S
DUBUQUE        SUNNY     66  42  41 N12       30.09S
6HR MIN TEMP:  64; 6HR MAX TEMP:  70;

MONTICELLO *   SUNNY     68  43  40 NW12      30.09R
OELWEIN *      SUNNY     68  43  40 N12G18    30.11S
WATERLOO       SUNNY     69  40  34 N13       30.10R
6HR MIN TEMP:  68; 6HR MAX TEMP:  72;

$$

IAZ064-065-067-068-078-270100-
   EAST CENTRAL IOWA

CITY           SKY/WX    TMP DP  RH WIND       PRES   REMARKS
DAVENPORT      SUNNY     69  44  40 N9        30.08R
6HR MIN TEMP:  69; 6HR MAX TEMP:  73;

IOWA CITY      SUNNY     73  43  33 N12       30.09S
6HR MIN TEMP:  68; 6HR MAX TEMP:  75; 6HR PCP: TRACE;

MT. PLEASANT * SUNNY     70  47  43 N7        30.08F
MUSCATINE *    MOSUNNY   72  43  35 N12       30.08R
QUAD CITIES    SUNNY     72  41  32 N9        30.06S
6HR MIN TEMP:  70; 6HR MAX TEMP:  75;

$$

IAZ062-063-075>077-085>089-095>099-270100-
   SOUTHEAST IOWA

CITY           SKY/WX    TMP DP  RH WIND       PRES   REMARKS
BURLINGTON     PTSUNNY   66  56  70 NW3       30.08F
6HR MIN TEMP:  62; 6HR MAX TEMP:  74; 6HR PCP:  0.03;

FAIRFIELD *    MOSUNNY   72  50  46 NW7       30.08S
FORT MADISON * MOSUNNY   70  54  56 N5        30.09S
KEOKUK *       PTSUNNY   73  52  46 W7        30.07S
OSKALOOSA *      N/A     70  51  51 NW7       30.09S
OTTUMWA        SUNNY     72  52  49 W8        30.09R
6HR MIN TEMP:  68; 6HR MAX TEMP:  76;

WASHINGTON *   SUNNY     72  48  43 NW10      30.09S
$$

ABBREVIATIONS USED IN REMARKS
   TC - TEMPERATURES IN CELSIUS
  WCI - WIND CHILL INDEX
   HX - HEAT INDEX
  VSB - VISIBILITY
$$





USA.gov is the U.S. government's official web portal to all federal, state and local government web resources and services.